MINOTAUR 4 R/B, 45877

Orbit data source: Space-Track

MINOTAUR 4 R/B, 45877 is space debris in LEO originally from a launch on Wed, 15 Jul 2020 UTC launched from the Wallops Island (WLPIS). Debris objects in space refer to the collection of defunct objects orbiting the Earth. Examples of debris include non-operational satellites, rocket bodies, and fragments generated from explosions, collisions, or faulty payload assembly.

Loading next visibility...
MINOTAUR 4 R/B details
Identifier
45877, 2020-046E
Orbit
LEO
Last TLE update11 hours ago
Origin
Flag of USUSSF SMC (US)
ManufacturerNGIS FSG
MissionSpacecraft
Bus & MotorORION 38, Unknown motor
Mass~500 kg wet, ~500 kg dry
Launch date (UTC)
2020-07-15 (4 years ago)
Launch vehicleUnknown
Launch site
Wallops Island (WLPIS)
Object type
Payload
Rocket body
Debris
Shape & HBRCyl + 1 Nozzle, 1.34 m
Radar Cross Section1.381 m², Large (>1 m²)

Expand to show TLE details & history

TLE from 11 hours ago
0 MINOTAUR 4 R/B
1 45877U 20046E   24361.19797833  .00004814  00000-0  36689-3 0  9998
2 45877  53.9798  69.8550 0007021 345.3460  14.7336 15.03712477167883
Epoch: 2024-12-26T04:45Z
Definitive object data (Epoch: 2024-12-26T04:45:05.327Z)
Latitude0.00004°
Longitude-96.59799°
Altitude551.729 km
Speed7.59 km/s
True Right ascension04h 39m 25s
True Declination0° 00' 00"
Sunlit
Object was in full shadow at TLE epoch
Visualization TLE readout
Latitude-53.80073°
Longitude-179.69179°
Altitude572.714 km
Speed7.575 km/s
Apparent Right ascension01h 11m 37s
Apparent Declination-50° 35' 47"
Sunlit
Object is in daylight
Visualization observer readout
Local Sidereal Time14:54:35
Azimuth129.313° SE
Elevation-69.126°
Doppler factor1
Orbital elements
Apogee altitude560.452 km
Perigee altitude550.716 km
Semi-major axis6,933.721 km
Eccentricity0.0007021
Inclination53.9798°
RAAN69.855°
Arg. of periapsis345.346°
True anomaly14.75408°
Mean anomaly14.7336°
Eccentric anomaly14.74384°
Mean motion3.75918 °/min
BSTAR0.00036689
Orbital period95.77 mins
Loading maneuver chart data...
Loading historical data...
Loading historical data...
Loading historical data...
Loading historical data...
Loading historical data...
Loading historical data...
Loading historical data...

MINOTAUR 4 R/B Visibility forecast

Observer location: undefined°, undefined

Span
Click to sort rows by Start time (UTC) header in descending order
Start Az.
Max El. time (UTC)
Max El. Az.
Max El.
End time (UTC)
End Az.
6 mins2024-12-27 06:25:33.732Z182.609° SSW2024-12-27 06:28:33.732Z125.282° SE25.012°2024-12-27 06:31:33.732Z72.985° E
6 mins2024-12-27 08:05:33.732Z265.622° W2024-12-27 08:07:33.732Z311.876° NW32.906°2024-12-27 08:11:33.732Z36.008° NE
5 mins2024-12-27 13:08:33.732Z348.789° N2024-12-27 13:10:33.732Z35.607° NE25.455°2024-12-27 13:13:33.732Z87.264° E
6 mins2024-12-27 14:47:33.732Z293.286° NW2024-12-27 14:50:33.732Z204.204° SW35.647°2024-12-27 14:53:33.732Z154.821° SSE
|